User: anonymous   Login
Location: Unspecified
(0.0000°N, 0.0000°E)
Time: 05:09:59
(UTC+00:00)
Language:

IRS-1C - Orbit

View from above orbital plane
View from above orbital plane
View from above satellite
View from above satellite

Ground track
Ground track

The orbit data is extracted from the following two-line orbital elements,

1 23751U 95072A   18292.46573893 +.00000009 +00000-0 +23767-4 0  9996
2 23751 098.7396 234.7687 0001264 088.3513 271.7809 14.22577304183708
Epoch (UTC): 19 October 2018 11:10:39
Eccentricity: 0.0001264
inclination: 98.7396°
perigee height: 816 km
apogee height: 817 km
right ascension of ascending node: 234.7687°
argument of perigee: 88.3513°
revolutions per day: 14.22577304
mean anomaly at epoch: 271.7809°
orbit number at epoch: 18370

The dashed part of the orbit path shows where the satellite is in the earth's shadow,  

DLR